FDB1KS LYBE-OMDB

Flight info

Callsign FDB1KS
Flight time 4h 41m
Altitude 35000
Route TPL DCT CLODY DCT RAXAD DCT RUGAS DCT GIKAS UG18 MES UL609 RDS DCT VANZA DCT STEPA L550 TAKSU/N0462F370 L550 KARIK B411 DEESA Y415 LOTOK P559 VUTEB
Aircraft B38M/M-SDE1FGHILORVWXY/HB1

Departure

Time 2026-04-20 21:11
Airport Belgrade Nikola Tesla Airport (LYBE)

Arrival

Time 2026-04-21 01:53
Airport Dubai International Airport (OMDB)
Time Latitude Longitude Altitude Speed Heading
2026-04-20 20:37 44.81975 20.29314 323 ft 0 kts 302°
2026-04-20 20:37 44.81974 20.29315 323 ft 0 kts 302°
2026-04-20 20:59 44.81968 20.29330 323 ft 4 kts 302°
2026-04-20 20:59 44.81954 20.29361 323 ft 4 kts 318°
2026-04-20 20:59 44.81933 20.29374 325 ft 4 kts 12°
2026-04-20 20:59 44.81917 20.29366 322 ft 0 kts 32°
2026-04-20 21:03 44.81918 20.29367 325 ft 1 kts 32°
2026-04-20 21:03 44.81931 20.29378 323 ft 5 kts 32°
2026-04-20 21:03 44.81988 20.29428 324 ft 13 kts 32°
2026-04-20 21:04 44.82061 20.29492 326 ft 12 kts 32°
2026-04-20 21:04 44.82115 20.29578 326 ft 12 kts 94°
2026-04-20 21:04 44.82072 20.29686 323 ft 13 kts 122°
2026-04-20 21:04 44.82021 20.29801 326 ft 15 kts 122°
2026-04-20 21:05 44.81964 20.29930 324 ft 16 kts 122°
2026-04-20 21:05 44.81902 20.30069 325 ft 17 kts 121°
2026-04-20 21:05 44.81839 20.30213 324 ft 18 kts 122°
2026-04-20 21:05 44.81771 20.30364 326 ft 18 kts 122°
2026-04-20 21:06 44.81702 20.30519 326 ft 19 kts 122°
2026-04-20 21:06 44.81630 20.30682 326 ft 20 kts 122°
2026-04-20 21:06 44.81556 20.30850 319 ft 21 kts 122°
2026-04-20 21:06 44.81483 20.31014 320 ft 19 kts 122°
2026-04-20 21:07 44.81413 20.31174 319 ft 19 kts 122°
2026-04-20 21:07 44.81343 20.31331 318 ft 19 kts 122°
2026-04-20 21:07 44.81273 20.31489 317 ft 19 kts 122°
2026-04-20 21:07 44.81201 20.31650 319 ft 20 kts 122°
2026-04-20 21:08 44.81127 20.31817 319 ft 21 kts 122°
2026-04-20 21:08 44.81053 20.31983 319 ft 19 kts 122°
2026-04-20 21:08 44.80991 20.32140 316 ft 18 kts 101°
2026-04-20 21:08 44.81056 20.32267 316 ft 14 kts 28°
2026-04-20 21:09 44.81110 20.32299 318 ft 0 kts 15°
2026-04-20 21:09 44.81120 20.32302 317 ft 5 kts 11°
2026-04-20 21:10 44.81184 20.32300 319 ft 13 kts 358°
2026-04-20 21:10 44.81258 20.32242 322 ft 13 kts 302°
2026-04-20 21:10 44.81357 20.32017 321 ft 58 kts 302°
2026-04-20 21:10 44.81699 20.31246 319 ft 126 kts 302°
2026-04-20 21:11 44.82269 20.29977 358 ft 176 kts 300°
2026-04-20 21:11 44.82926 20.28446 903 ft 187 kts 299°
2026-04-20 21:11 44.83598 20.26814 1675 ft 195 kts 300°
2026-04-20 21:11 44.84043 20.24988 2349 ft 212 kts 273°
2026-04-20 21:12 44.83593 20.22915 2863 ft 232 kts 233°
2026-04-20 21:12 44.82286 20.21515 3637 ft 243 kts 205°
2026-04-20 21:12 44.80722 20.20573 4544 ft 249 kts 208°
2026-04-20 21:12 44.79307 20.19213 5302 ft 254 kts 224°
2026-04-20 21:13 44.78013 20.17547 6231 ft 250 kts 223°
2026-04-20 21:13 44.76691 20.15947 7121 ft 253 kts 222°
2026-04-20 21:13 44.75332 20.14366 7985 ft 254 kts 221°
2026-04-20 21:13 44.73953 20.12801 8875 ft 256 kts 221°
2026-04-20 21:14 44.72549 20.11227 9687 ft 260 kts 221°
2026-04-20 21:14 44.71124 20.09645 10466 ft 262 kts 222°
2026-04-20 21:14 44.69635 20.08124 11125 ft 273 kts 211°
2026-04-20 21:14 44.67737 20.07456 11613 ft 294 kts 182°
2026-04-20 21:15 44.65705 20.08154 12171 ft 311 kts 156°
2026-04-20 21:15 44.63844 20.09884 12554 ft 332 kts 142°
2026-04-20 21:15 44.62016 20.12024 12830 ft 352 kts 143°
2026-04-20 21:15 44.60736 20.13504 12995 ft 365 kts 143°
2026-04-20 21:16 44.58721 20.15815 13214 ft 384 kts 143°
2026-04-20 21:16 44.56600 20.18206 13550 ft 397 kts 147°
2026-04-20 21:16 44.54231 20.20185 14148 ft 397 kts 153°
2026-04-20 21:16 44.51840 20.22159 14753 ft 401 kts 152°
2026-04-20 21:17 44.49438 20.24178 15354 ft 404 kts 152°
2026-04-20 21:17 44.47023 20.26228 15940 ft 408 kts 152°
2026-04-20 21:17 44.44589 20.28302 16513 ft 411 kts 152°
2026-04-20 21:17 44.42132 20.30398 17034 ft 416 kts 152°
2026-04-20 21:18 44.39662 20.32504 17666 ft 417 kts 153°
2026-04-20 21:18 44.37170 20.34626 18176 ft 421 kts 153°
2026-04-20 21:18 44.34691 20.36738 18668 ft 424 kts 153°
2026-04-20 21:18 44.32118 20.38926 19053 ft 430 kts 153°
2026-04-20 21:19 44.29550 20.41108 19438 ft 435 kts 153°
2026-04-20 21:19 44.26978 20.43293 19788 ft 441 kts 153°
2026-04-20 21:19 44.24318 20.45549 20237 ft 444 kts 153°
2026-04-20 21:20 44.19016 20.50039 21050 ft 453 kts 154°
2026-04-20 21:20 44.16312 20.52325 21457 ft 457 kts 154°
2026-04-20 21:20 44.13582 20.54631 21852 ft 461 kts 154°
2026-04-20 21:20 44.10827 20.56955 22295 ft 464 kts 154°
2026-04-20 21:21 44.08053 20.59292 22641 ft 470 kts 154°
2026-04-20 21:21 44.05251 20.61651 23069 ft 471 kts 154°
2026-04-20 21:21 44.02432 20.64021 23428 ft 476 kts 154°
2026-04-20 21:21 43.99585 20.66412 23785 ft 479 kts 154°
2026-04-20 21:22 43.96722 20.68815 24126 ft 482 kts 154°
2026-04-20 21:22 43.93841 20.71228 24489 ft 484 kts 154°
2026-04-20 21:22 43.90955 20.73644 24883 ft 485 kts 154°
2026-04-20 21:22 43.88056 20.76068 25179 ft 488 kts 154°
2026-04-20 21:23 43.85137 20.78505 25508 ft 491 kts 154°
2026-04-20 21:23 43.82205 20.80950 25816 ft 493 kts 153°
2026-04-20 21:23 43.79259 20.83403 26126 ft 496 kts 153°
2026-04-20 21:23 43.76296 20.85868 26446 ft 498 kts 153°
2026-04-20 21:24 43.73316 20.88346 26751 ft 501 kts 153°
2026-04-20 21:24 43.70318 20.90836 27058 ft 503 kts 153°
2026-04-20 21:24 43.67311 20.93329 27341 ft 506 kts 153°
2026-04-20 21:24 43.64280 20.95839 27638 ft 509 kts 153°
2026-04-20 21:25 43.61239 20.98355 27886 ft 511 kts 153°
2026-04-20 21:25 43.58182 21.00881 28155 ft 514 kts 153°
2026-04-20 21:25 43.55107 21.03418 28445 ft 516 kts 153°
2026-04-20 21:25 43.52015 21.05966 28707 ft 518 kts 153°
2026-04-20 21:26 43.48918 21.08514 28947 ft 520 kts 153°
2026-04-20 21:26 43.45843 21.11043 29224 ft 522 kts 153°
2026-04-20 21:26 43.42732 21.13601 29664 ft 520 kts 153°
2026-04-20 21:26 43.39631 21.16144 30085 ft 519 kts 153°
2026-04-20 21:27 43.36529 21.18685 30412 ft 518 kts 153°
2026-04-20 21:27 43.33446 21.21208 30859 ft 513 kts 153°
2026-04-20 21:27 43.30389 21.23707 31268 ft 510 kts 153°
2026-04-20 21:27 43.27351 21.26188 31686 ft 507 kts 153°
2026-04-20 21:28 43.24326 21.28654 32074 ft 504 kts 153°
2026-04-20 21:28 43.21319 21.31103 32462 ft 501 kts 153°
2026-04-20 21:28 43.18335 21.33531 32927 ft 496 kts 153°
2026-04-20 21:28 43.15381 21.35932 33352 ft 492 kts 153°
2026-04-20 21:29 43.12449 21.38311 33757 ft 489 kts 153°
2026-04-20 21:29 43.09530 21.40678 34099 ft 486 kts 154°
2026-04-20 21:29 43.06621 21.43034 34355 ft 485 kts 154°
2026-04-20 21:29 43.03714 21.45385 34578 ft 485 kts 154°
2026-04-20 21:30 43.00811 21.47731 34803 ft 485 kts 154°
2026-04-20 21:30 42.97906 21.50076 34984 ft 485 kts 154°
2026-04-20 21:30 42.94998 21.52420 35013 ft 486 kts 154°
2026-04-20 21:31 42.89192 21.57093 35002 ft 484 kts 154°
2026-04-20 21:31 42.83388 21.61755 35001 ft 484 kts 154°
2026-04-20 21:32 42.77624 21.66374 35010 ft 484 kts 154°
2026-04-20 21:32 42.71818 21.71017 35001 ft 484 kts 154°
2026-04-20 21:33 42.66009 21.75652 35002 ft 484 kts 154°
2026-04-20 21:33 42.60200 21.80277 35002 ft 484 kts 154°
2026-04-20 21:34 42.54405 21.84880 34999 ft 482 kts 154°
2026-04-20 21:34 42.48606 21.89477 35006 ft 483 kts 154°
2026-04-20 21:35 42.42806 21.94064 35000 ft 482 kts 154°
2026-04-20 21:35 42.37008 21.98640 34997 ft 482 kts 154°
2026-04-20 21:36 42.31214 22.03203 35002 ft 482 kts 154°
2026-04-20 21:36 42.25419 22.07757 34986 ft 482 kts 154°
2026-04-20 21:37 42.19619 22.12305 35000 ft 482 kts 154°
2026-04-20 21:37 42.13805 22.16854 34996 ft 483 kts 154°
2026-04-20 21:38 42.07990 22.21395 34981 ft 483 kts 154°
2026-04-20 21:38 42.02213 22.25897 34984 ft 483 kts 154°
2026-04-20 21:39 41.96395 22.30420 34980 ft 483 kts 154°
2026-04-20 21:39 41.90569 22.34940 34970 ft 483 kts 154°
2026-04-20 21:40 41.84748 22.39446 34974 ft 483 kts 154°
2026-04-20 21:40 41.78924 22.43946 34965 ft 483 kts 154°
2026-04-20 21:41 41.73100 22.48435 34972 ft 483 kts 154°
2026-04-20 21:41 41.67272 22.52919 34966 ft 483 kts 154°
2026-04-20 21:42 41.61439 22.57397 34966 ft 483 kts 154°
2026-04-20 21:42 41.55612 22.61860 34970 ft 483 kts 154°
2026-04-20 21:43 41.49820 22.66287 34967 ft 483 kts 154°
2026-04-20 21:43 41.43983 22.70740 34968 ft 483 kts 154°
2026-04-20 21:44 41.38148 22.75183 34968 ft 483 kts 154°
2026-04-20 21:44 41.32359 22.79746 34946 ft 486 kts 146°
2026-04-20 21:45 41.27055 22.85382 34984 ft 490 kts 144°
2026-04-20 21:45 41.21737 22.91015 34965 ft 489 kts 145°
2026-04-20 21:46 41.16416 22.96636 34965 ft 489 kts 145°
2026-04-20 21:46 41.11087 23.02255 34966 ft 489 kts 145°
2026-04-20 21:47 41.05760 23.07858 34967 ft 489 kts 145°
2026-04-20 21:47 41.00433 23.13450 34967 ft 489 kts 145°
2026-04-20 21:48 40.95130 23.19005 34965 ft 489 kts 145°
2026-04-20 21:48 40.89788 23.24589 34964 ft 489 kts 145°
2026-04-20 21:49 40.84444 23.30163 34968 ft 489 kts 145°
2026-04-20 21:49 40.79099 23.35727 34945 ft 489 kts 145°
2026-04-20 21:50 40.73752 23.41280 34969 ft 489 kts 145°
2026-04-20 21:50 40.68397 23.46830 34969 ft 491 kts 144°
2026-04-20 21:51 40.63027 23.52385 34967 ft 491 kts 145°
2026-04-20 21:51 40.57656 23.57929 34965 ft 491 kts 145°
2026-04-20 21:52 40.52281 23.63465 34935 ft 490 kts 144°
2026-04-20 21:52 40.46917 23.68977 34958 ft 489 kts 144°
2026-04-20 21:53 40.41553 23.74478 34962 ft 489 kts 144°
2026-04-20 21:53 40.36179 23.79980 34968 ft 490 kts 144°
2026-04-20 21:54 40.30794 23.85481 34955 ft 490 kts 144°
2026-04-20 21:54 40.25412 23.90967 34959 ft 490 kts 144°
2026-04-20 21:55 40.20028 23.96443 34952 ft 490 kts 144°
2026-04-20 21:55 40.14637 24.01915 34956 ft 490 kts 145°
2026-04-20 21:56 40.09244 24.07378 34960 ft 490 kts 144°
2026-04-20 21:56 40.03844 24.12837 34955 ft 491 kts 144°
2026-04-20 21:57 39.98473 24.18256 34945 ft 491 kts 144°
2026-04-20 21:57 39.93065 24.23701 34953 ft 491 kts 144°
2026-04-20 21:58 39.87641 24.29150 34952 ft 491 kts 144°
2026-04-20 21:58 39.82227 24.34578 34951 ft 491 kts 144°
2026-04-20 21:59 39.76812 24.39996 34953 ft 491 kts 144°
2026-04-20 21:59 39.71393 24.45408 34943 ft 491 kts 144°
2026-04-20 22:00 39.65969 24.50814 34955 ft 491 kts 144°
2026-04-20 22:00 39.60547 24.56209 34951 ft 491 kts 144°
2026-04-20 22:01 39.55118 24.61600 34959 ft 491 kts 144°
2026-04-20 22:01 39.49699 24.66993 34945 ft 491 kts 144°
2026-04-20 22:02 39.44357 24.72412 34951 ft 491 kts 144°
2026-04-20 22:02 39.38979 24.77849 34951 ft 490 kts 144°
2026-04-20 22:03 39.33598 24.83276 34953 ft 490 kts 144°
2026-04-20 22:03 39.28220 24.88689 34952 ft 490 kts 144°
2026-04-20 22:04 39.22833 24.94101 34953 ft 490 kts 144°
2026-04-20 22:04 39.17450 24.99507 34950 ft 491 kts 144°
2026-04-20 22:05 39.12058 25.04913 34958 ft 492 kts 143°
2026-04-20 22:05 39.07568 25.09406 34960 ft 492 kts 143°
2026-04-20 22:06 39.02164 25.14803 34958 ft 492 kts 143°
2026-04-20 22:06 38.96758 25.20193 34959 ft 492 kts 143°
2026-04-20 22:07 38.91348 25.25576 34954 ft 492 kts 143°
2026-04-20 22:07 38.85935 25.30950 34963 ft 492 kts 143°
2026-04-20 22:08 38.80517 25.36319 34967 ft 491 kts 143°
2026-04-20 22:08 38.75102 25.41674 34966 ft 491 kts 143°
2026-04-20 22:09 38.69726 25.46981 34966 ft 491 kts 143°
2026-04-20 22:09 38.64303 25.52323 34965 ft 492 kts 143°
2026-04-20 22:10 38.58866 25.57669 34976 ft 493 kts 143°
2026-04-20 22:10 38.53423 25.63010 34969 ft 493 kts 143°
2026-04-20 22:11 38.47975 25.68347 34973 ft 494 kts 143°
2026-04-20 22:11 38.42520 25.73682 34972 ft 494 kts 143°
2026-04-20 22:12 38.37064 25.79008 34973 ft 495 kts 143°
2026-04-20 22:12 38.31585 25.84342 34980 ft 496 kts 143°
2026-04-20 22:13 38.26103 25.89673 34985 ft 496 kts 142°
2026-04-20 22:13 38.20902 25.95434 35022 ft 497 kts 139°
2026-04-20 22:14 38.15682 26.01197 34978 ft 496 kts 140°
2026-04-20 22:14 38.10450 26.06932 34969 ft 497 kts 140°
2026-04-20 22:15 38.05258 26.12627 34983 ft 497 kts 139°
2026-04-20 22:15 38.00043 26.18383 34988 ft 497 kts 140°
2026-04-20 22:16 37.94820 26.24129 34988 ft 497 kts 140°
2026-04-20 22:16 37.89601 26.29860 34992 ft 496 kts 140°
2026-04-20 22:17 37.84383 26.35567 34988 ft 496 kts 140°
2026-04-20 22:17 37.79160 26.41263 34985 ft 495 kts 140°
2026-04-20 22:18 37.73937 26.46951 34990 ft 495 kts 140°
2026-04-20 22:18 37.68712 26.52629 34993 ft 495 kts 140°
2026-04-20 22:19 37.63493 26.58304 35001 ft 495 kts 140°
2026-04-20 22:19 37.58270 26.63972 34991 ft 495 kts 140°
2026-04-20 22:20 37.53051 26.69624 34992 ft 495 kts 140°
2026-04-20 22:20 37.47824 26.75274 34993 ft 495 kts 140°
2026-04-20 22:21 37.42631 26.80876 34993 ft 495 kts 140°
2026-04-20 22:21 37.37564 26.86732 35010 ft 495 kts 136°
2026-04-20 22:22 37.32584 26.92727 34992 ft 496 kts 137°
2026-04-20 22:22 37.27579 26.98697 34993 ft 496 kts 137°
2026-04-20 22:23 37.22569 27.04656 34985 ft 496 kts 137°
2026-04-20 22:23 37.17545 27.10623 34994 ft 497 kts 137°
2026-04-20 22:24 37.12521 27.16578 34991 ft 497 kts 137°
2026-04-20 22:24 37.07484 27.22535 34996 ft 499 kts 138°
2026-04-20 22:25 37.02438 27.28493 34994 ft 499 kts 138°
2026-04-20 22:25 36.97389 27.34443 34994 ft 499 kts 138°
2026-04-20 22:26 36.92333 27.40388 34976 ft 499 kts 138°
2026-04-20 22:26 36.87273 27.46329 34994 ft 499 kts 138°
2026-04-20 22:27 36.79715 27.55180 34987 ft 498 kts 138°
2026-04-20 22:27 36.74619 27.61134 34980 ft 498 kts 139°
2026-04-20 22:28 36.69587 27.66999 34974 ft 499 kts 139°
2026-04-20 22:28 36.64519 27.72899 34977 ft 498 kts 139°
2026-04-20 22:29 36.59448 27.78789 34973 ft 500 kts 139°
2026-04-20 22:29 36.54353 27.84697 34966 ft 500 kts 139°
2026-04-20 22:30 36.49259 27.90594 34967 ft 501 kts 139°
2026-04-20 22:30 36.44158 27.96485 34966 ft 501 kts 139°
2026-04-20 22:31 36.39055 28.02372 34966 ft 500 kts 139°
2026-04-20 22:31 36.33972 28.08283 34966 ft 501 kts 136°
2026-04-20 22:32 36.29070 28.14460 34955 ft 503 kts 136°
2026-04-20 22:32 36.24127 28.20619 34963 ft 504 kts 136°
2026-04-20 22:33 36.19177 28.26767 34969 ft 504 kts 137°
2026-04-20 22:33 36.14262 28.32859 34963 ft 504 kts 137°
2026-04-20 22:34 36.09309 28.38986 34972 ft 503 kts 137°
2026-04-20 22:34 36.04357 28.45102 34963 ft 504 kts 137°
2026-04-20 22:35 35.99394 28.51219 34948 ft 504 kts 137°
2026-04-20 22:35 35.94420 28.57338 34970 ft 506 kts 137°
2026-04-20 22:36 35.89433 28.63462 34965 ft 506 kts 137°
2026-04-20 22:36 35.84444 28.69574 34971 ft 505 kts 137°
2026-04-20 22:37 35.79461 28.75672 34965 ft 505 kts 137°
2026-04-20 22:37 35.74474 28.81760 34963 ft 505 kts 137°
2026-04-20 22:38 35.69482 28.87845 34965 ft 505 kts 137°
2026-04-20 22:38 35.64485 28.93922 34956 ft 506 kts 138°
2026-04-20 22:39 35.59468 29.00014 34967 ft 507 kts 138°
2026-04-20 22:39 35.54454 29.06090 34966 ft 507 kts 138°
2026-04-20 22:40 35.49432 29.12166 34966 ft 507 kts 138°
2026-04-20 22:40 35.44439 29.18194 34968 ft 507 kts 138°
2026-04-20 22:41 35.39411 29.24254 34968 ft 507 kts 138°
2026-04-20 22:41 35.34378 29.30309 34938 ft 506 kts 139°
2026-04-20 22:42 35.29341 29.36357 34976 ft 509 kts 139°
2026-04-20 22:42 35.24282 29.42421 34970 ft 508 kts 139°
2026-04-20 22:43 35.19222 29.48474 34972 ft 508 kts 139°
2026-04-20 22:43 35.14163 29.54515 34975 ft 508 kts 139°
2026-04-20 22:44 35.09106 29.60543 34968 ft 508 kts 139°
2026-04-20 22:44 35.04050 29.66558 34972 ft 508 kts 139°
2026-04-20 22:45 34.98985 29.72572 34968 ft 509 kts 139°
2026-04-20 22:45 34.93896 29.78607 34973 ft 510 kts 139°
2026-04-20 22:46 34.88844 29.84585 34975 ft 510 kts 139°
2026-04-20 22:46 34.83759 29.90594 34974 ft 509 kts 139°
2026-04-20 22:47 34.78674 29.96592 34982 ft 509 kts 139°
2026-04-20 22:47 34.73712 30.02744 34983 ft 510 kts 136°
2026-04-20 22:48 34.68829 30.09006 34971 ft 510 kts 137°
2026-04-20 22:48 34.63919 30.15258 34977 ft 513 kts 137°
2026-04-20 22:49 34.58991 30.21524 34972 ft 513 kts 137°
2026-04-20 22:49 34.54064 30.27775 34981 ft 513 kts 137°
2026-04-20 22:50 34.49123 30.34031 34978 ft 513 kts 137°
2026-04-20 22:50 34.44188 30.40269 34978 ft 513 kts 137°
2026-04-20 22:51 34.39251 30.46499 34983 ft 513 kts 137°
2026-04-20 22:51 34.34310 30.52723 34980 ft 513 kts 137°
2026-04-20 22:52 34.29397 30.58899 34977 ft 513 kts 137°
2026-04-20 22:52 34.24445 30.65113 34978 ft 513 kts 137°
2026-04-20 22:53 34.19491 30.71320 34979 ft 512 kts 137°
2026-04-20 22:53 34.14539 30.77512 34977 ft 512 kts 137°
2026-04-20 22:54 34.09586 30.83694 34982 ft 513 kts 138°
2026-04-20 22:54 34.05465 30.88828 34977 ft 513 kts 138°
2026-04-20 22:55 34.00503 30.95002 34959 ft 513 kts 138°
2026-04-20 22:55 33.95524 31.01184 34988 ft 515 kts 138°
2026-04-20 22:56 33.90527 31.07380 34984 ft 515 kts 138°
2026-04-20 22:56 33.85530 31.13562 34989 ft 515 kts 138°
2026-04-20 22:57 33.80533 31.19736 34986 ft 515 kts 138°
2026-04-20 22:57 33.75529 31.25904 34991 ft 515 kts 139°
2026-04-20 22:58 33.70535 31.32052 34987 ft 513 kts 139°
2026-04-20 22:58 33.65543 31.38185 34949 ft 514 kts 139°
2026-04-20 22:59 33.60519 31.44346 34983 ft 519 kts 139°
2026-04-20 22:59 33.55465 31.50534 34986 ft 518 kts 139°
2026-04-20 23:00 33.50416 31.56704 34989 ft 518 kts 139°
2026-04-20 23:00 33.45405 31.62818 34993 ft 518 kts 139°
2026-04-20 23:01 33.40358 31.68965 34989 ft 518 kts 139°
2026-04-20 23:01 33.35307 31.75105 34988 ft 518 kts 139°
2026-04-20 23:02 33.30248 31.81243 34956 ft 518 kts 140°
2026-04-20 23:02 33.25175 31.87388 34991 ft 520 kts 140°
2026-04-20 23:03 33.20090 31.93538 34987 ft 520 kts 140°
2026-04-20 23:03 33.14999 31.99683 34989 ft 520 kts 140°
2026-04-20 23:04 33.09909 32.05817 34988 ft 520 kts 140°
2026-04-20 23:04 33.04820 32.11939 34989 ft 519 kts 140°
2026-04-20 23:05 32.99739 32.18041 34991 ft 518 kts 140°
2026-04-20 23:05 32.94651 32.24140 34960 ft 520 kts 140°
2026-04-20 23:06 32.89535 32.30267 34993 ft 522 kts 140°
2026-04-20 23:06 32.84445 32.36350 35002 ft 521 kts 140°
2026-04-20 23:07 32.79323 32.42420 34986 ft 520 kts 141°
2026-04-20 23:07 32.74193 32.48485 34989 ft 520 kts 141°
2026-04-20 23:08 32.69067 32.54535 34996 ft 520 kts 141°
2026-04-20 23:08 32.63934 32.60584 34991 ft 520 kts 141°
2026-04-20 23:09 32.58799 32.66622 34982 ft 520 kts 141°
2026-04-20 23:09 32.53657 32.72662 34992 ft 520 kts 141°
2026-04-20 23:10 32.48511 32.78695 34994 ft 520 kts 141°
2026-04-20 23:10 32.43362 32.84720 34994 ft 520 kts 141°
2026-04-20 23:11 32.38213 32.90734 34996 ft 520 kts 141°
2026-04-20 23:11 32.33073 32.96731 34995 ft 519 kts 141°
2026-04-20 23:12 32.27934 33.02715 34995 ft 519 kts 141°
2026-04-20 23:12 32.22397 33.07939 34992 ft 498 kts 162°
2026-04-20 23:13 32.19213 33.09388 34987 ft 482 kts 176°
2026-04-20 23:13 32.15950 33.09928 35011 ft 472 kts 184°
2026-04-20 23:13 32.09395 33.10536 35002 ft 471 kts 186°
2026-04-20 23:14 32.02890 33.10934 35004 ft 471 kts 186°
2026-04-20 23:14 31.96351 33.11274 35005 ft 470 kts 187°
2026-04-20 23:15 31.89812 33.11604 35007 ft 470 kts 187°
2026-04-20 23:15 31.83277 33.11932 35013 ft 470 kts 187°
2026-04-20 23:16 31.76741 33.12261 34989 ft 470 kts 187°
2026-04-20 23:16 31.70185 33.12592 35013 ft 472 kts 187°
2026-04-20 23:17 31.63631 33.12922 35018 ft 471 kts 187°
2026-04-20 23:17 31.57074 33.13252 35018 ft 471 kts 187°
2026-04-20 23:18 31.50516 33.13581 35015 ft 472 kts 187°
2026-04-20 23:18 31.43949 33.13911 35019 ft 472 kts 187°
2026-04-20 23:19 31.37412 33.14504 34992 ft 485 kts 174°
2026-04-20 23:19 31.34204 33.15901 35010 ft 501 kts 160°
2026-04-20 23:19 31.31115 33.17816 35037 ft 504 kts 160°
2026-04-20 23:20 31.24933 33.21687 35027 ft 504 kts 159°
2026-04-20 23:20 31.18766 33.25576 35029 ft 504 kts 159°
2026-04-20 23:21 31.12597 33.29459 35032 ft 504 kts 159°
2026-04-20 23:21 31.06423 33.33340 35032 ft 504 kts 159°
2026-04-20 23:22 31.00248 33.37214 35007 ft 504 kts 160°
2026-04-20 23:22 30.94079 33.41081 35034 ft 503 kts 160°
2026-04-20 23:23 30.91061 33.43201 35009 ft 513 kts 148°
2026-04-20 23:23 30.88580 33.46232 35022 ft 526 kts 128°
2026-04-20 23:23 30.86944 33.50070 35032 ft 535 kts 109°
2026-04-20 23:23 30.85866 33.54221 35038 ft 537 kts 112°
2026-04-20 23:24 30.83191 33.62327 35057 ft 538 kts 114°
2026-04-20 23:24 30.80482 33.70372 35032 ft 537 kts 114°
2026-04-20 23:25 30.77747 33.78455 35036 ft 537 kts 114°
2026-04-20 23:25 30.75008 33.86530 35035 ft 537 kts 115°
2026-04-20 23:26 30.72264 33.94600 35038 ft 537 kts 115°
2026-04-20 23:26 30.69514 34.02665 35037 ft 536 kts 115°
2026-04-20 23:27 30.66763 34.10714 35025 ft 536 kts 115°
2026-04-20 23:27 30.64009 34.18757 35042 ft 536 kts 115°
2026-04-20 23:28 30.61248 34.26797 35034 ft 536 kts 115°
2026-04-20 23:28 30.58483 34.34833 35044 ft 536 kts 115°
2026-04-20 23:29 30.55714 34.42859 35044 ft 536 kts 115°
2026-04-20 23:29 30.52940 34.50880 35040 ft 536 kts 115°
2026-04-20 23:30 30.50161 34.58899 35039 ft 536 kts 115°
2026-04-20 23:30 30.47377 34.66915 35042 ft 536 kts 115°
2026-04-20 23:31 30.44606 34.74873 35018 ft 536 kts 116°
2026-04-20 23:31 30.41794 34.82930 35036 ft 536 kts 116°
2026-04-20 23:32 30.39015 34.90876 35024 ft 535 kts 116°
2026-04-20 23:32 30.36212 34.98872 35020 ft 535 kts 116°
2026-04-20 23:33 30.33406 35.06854 35023 ft 535 kts 116°
2026-04-20 23:33 30.30598 35.14828 35022 ft 535 kts 116°
2026-04-20 23:34 30.27785 35.22795 35023 ft 535 kts 116°
2026-04-20 23:34 30.24960 35.30778 35027 ft 537 kts 116°
2026-04-20 23:35 30.20698 35.42786 35026 ft 538 kts 116°
2026-04-20 23:36 30.17852 35.50785 35003 ft 538 kts 117°
2026-04-20 23:36 30.15016 35.58737 35015 ft 540 kts 117°
2026-04-20 23:37 30.12145 35.66768 35015 ft 540 kts 117°
2026-04-20 23:37 30.09270 35.74793 35008 ft 540 kts 117°
2026-04-20 23:38 30.06398 35.82789 35007 ft 538 kts 117°
2026-04-20 23:38 30.03529 35.90760 35009 ft 538 kts 117°
2026-04-20 23:39 30.00655 35.98726 35012 ft 538 kts 117°
2026-04-20 23:39 29.97775 36.06690 35012 ft 538 kts 117°
2026-04-20 23:40 29.94891 36.14648 35013 ft 538 kts 117°
2026-04-20 23:40 29.92004 36.22600 35014 ft 538 kts 117°
2026-04-20 23:41 29.89107 36.30556 34977 ft 539 kts 118°
2026-04-20 23:41 29.86193 36.38545 35013 ft 541 kts 118°
2026-04-20 23:42 29.83294 36.46475 35003 ft 541 kts 118°
2026-04-20 23:42 29.80366 36.54461 35007 ft 542 kts 118°
2026-04-20 23:43 29.77425 36.62472 35007 ft 543 kts 118°
2026-04-20 23:43 29.74762 36.70621 34989 ft 549 kts 105°
2026-04-20 23:44 29.73388 36.77765 35015 ft 552 kts 107°
2026-04-20 23:44 29.71682 36.86357 35048 ft 551 kts 107°
2026-04-20 23:45 29.69976 36.94907 35008 ft 547 kts 107°
2026-04-20 23:45 29.68266 37.03440 35009 ft 548 kts 107°
2026-04-20 23:46 29.66548 37.11992 35013 ft 549 kts 107°
2026-04-20 23:46 29.64823 37.20545 35011 ft 549 kts 107°
2026-04-20 23:47 29.63090 37.29106 35011 ft 551 kts 107°
2026-04-20 23:47 29.61348 37.37685 35019 ft 551 kts 107°
2026-04-20 23:48 29.59602 37.46253 35015 ft 551 kts 107°
2026-04-20 23:48 29.57860 37.54769 35013 ft 553 kts 108°
2026-04-20 23:49 29.56097 37.63359 35012 ft 552 kts 108°
2026-04-20 23:49 29.54328 37.71948 35004 ft 552 kts 108°
2026-04-20 23:50 29.52553 37.80537 35016 ft 553 kts 108°
2026-04-20 23:50 29.50771 37.89136 35014 ft 553 kts 108°
2026-04-20 23:51 29.48989 37.97723 34994 ft 553 kts 107°
2026-04-20 23:51 29.47469 38.06410 35026 ft 556 kts 105°
2026-04-20 23:52 29.45926 38.15096 35027 ft 555 kts 106°
2026-04-20 23:52 29.44375 38.23772 35016 ft 555 kts 106°
2026-04-20 23:53 29.42817 38.32453 35027 ft 556 kts 106°
2026-04-20 23:53 29.41253 38.41130 35021 ft 555 kts 106°
2026-04-20 23:54 29.39694 38.49743 35027 ft 555 kts 106°
2026-04-20 23:54 29.38121 38.58403 35041 ft 552 kts 106°
2026-04-20 23:55 29.36553 38.66998 35000 ft 551 kts 106°
2026-04-20 23:55 29.34973 38.75631 35030 ft 554 kts 106°
2026-04-20 23:56 29.33387 38.84270 35024 ft 553 kts 106°
2026-04-20 23:56 29.31693 38.92868 35023 ft 553 kts 108°
2026-04-20 23:57 29.29897 39.01446 35029 ft 554 kts 108°
2026-04-20 23:57 29.28107 39.10027 35024 ft 554 kts 108°
2026-04-20 23:58 29.26308 39.18617 35025 ft 556 kts 108°
2026-04-20 23:58 29.24498 39.27230 35023 ft 556 kts 108°
2026-04-20 23:59 29.22684 39.35832 34999 ft 556 kts 108°
2026-04-20 23:59 29.20863 39.44442 35020 ft 556 kts 108°
2026-04-21 00:00 29.19037 39.53042 35022 ft 556 kts 109°
2026-04-21 00:00 29.17217 39.61584 35009 ft 556 kts 109°
2026-04-21 00:01 29.15380 39.70183 35030 ft 557 kts 109°
2026-04-21 00:01 29.13536 39.78784 35019 ft 556 kts 109°
2026-04-21 00:02 29.11686 39.87387 35011 ft 557 kts 109°
2026-04-21 00:02 29.10222 39.96116 35037 ft 560 kts 104°
2026-04-21 00:03 29.08853 40.04889 34973 ft 560 kts 104°
2026-04-21 00:03 29.07450 40.13644 35005 ft 560 kts 105°
2026-04-21 00:04 29.06039 40.22403 34989 ft 560 kts 105°
2026-04-21 00:04 29.04622 40.31154 34993 ft 560 kts 105°
2026-04-21 00:05 29.03199 40.39910 34988 ft 560 kts 105°
2026-04-21 00:05 29.01771 40.48658 34971 ft 560 kts 105°
2026-04-21 00:06 29.00337 40.57406 34983 ft 560 kts 105°
2026-04-21 00:06 28.98898 40.66158 34975 ft 560 kts 105°
2026-04-21 00:07 28.97467 40.74906 34969 ft 560 kts 105°
2026-04-21 00:07 28.96032 40.83655 34967 ft 560 kts 105°
2026-04-21 00:08 28.94591 40.92403 34956 ft 560 kts 105°
2026-04-21 00:08 28.93144 41.01147 34961 ft 560 kts 105°
2026-04-21 00:09 28.91703 41.09823 34955 ft 560 kts 105°
2026-04-21 00:09 28.90246 41.18556 34948 ft 560 kts 105°
2026-04-21 00:10 28.88785 41.27283 34955 ft 560 kts 105°
2026-04-21 00:10 28.87317 41.36012 34937 ft 560 kts 105°
2026-04-21 00:11 28.85844 41.44735 34943 ft 560 kts 105°
2026-04-21 00:11 28.84366 41.53444 34938 ft 559 kts 105°
2026-04-21 00:12 28.82884 41.62154 34936 ft 559 kts 105°
2026-04-21 00:12 28.81395 41.70860 34931 ft 559 kts 105°
2026-04-21 00:13 28.79902 41.79559 34909 ft 559 kts 105°
2026-04-21 00:13 28.78404 41.88252 34925 ft 558 kts 105°
2026-04-21 00:14 28.76902 41.96934 34930 ft 558 kts 105°
2026-04-21 00:14 28.75395 42.05609 34928 ft 557 kts 105°
2026-04-21 00:15 28.73884 42.14277 34932 ft 558 kts 105°
2026-04-21 00:15 28.72368 42.22934 34950 ft 557 kts 106°
2026-04-21 00:16 28.70849 42.31577 34919 ft 556 kts 106°
2026-04-21 00:16 28.69325 42.40212 34925 ft 556 kts 106°
2026-04-21 00:17 28.67806 42.48787 34924 ft 555 kts 106°
2026-04-21 00:17 28.66273 42.57409 34922 ft 555 kts 106°
2026-04-21 00:18 28.64736 42.66022 34912 ft 554 kts 107°
2026-04-21 00:18 28.62995 42.74558 34914 ft 554 kts 108°
2026-04-21 00:19 28.61263 42.83104 34918 ft 554 kts 108°
2026-04-21 00:19 28.59525 42.91643 34911 ft 554 kts 108°
2026-04-21 00:20 28.57781 43.00180 34915 ft 554 kts 108°
2026-04-21 00:20 28.56044 43.08657 34908 ft 554 kts 108°
2026-04-21 00:21 28.54290 43.17189 34909 ft 553 kts 108°
2026-04-21 00:21 28.52533 43.25706 34888 ft 553 kts 108°
2026-04-21 00:22 28.50769 43.34225 34925 ft 553 kts 108°
2026-04-21 00:22 28.49002 43.42734 34899 ft 552 kts 108°
2026-04-21 00:23 28.47232 43.51234 34889 ft 552 kts 108°
2026-04-21 00:23 28.45454 43.59724 34889 ft 552 kts 109°
2026-04-21 00:24 28.43669 43.68209 34886 ft 552 kts 109°
2026-04-21 00:24 28.41878 43.76688 34884 ft 552 kts 109°
2026-04-21 00:25 28.40086 43.85159 34872 ft 552 kts 108°
2026-04-21 00:25 28.38324 43.93650 34892 ft 552 kts 108°
2026-04-21 00:26 28.36556 44.02137 34893 ft 552 kts 108°
2026-04-21 00:26 28.34795 44.10555 34891 ft 552 kts 108°
2026-04-21 00:27 28.33018 44.19024 34891 ft 551 kts 109°
2026-04-21 00:27 28.31238 44.27482 34886 ft 550 kts 109°
2026-04-21 00:28 28.29453 44.35934 34898 ft 550 kts 109°
2026-04-21 00:28 28.27665 44.44370 34916 ft 550 kts 109°
2026-04-21 00:29 28.25875 44.52794 34891 ft 549 kts 109°
2026-04-21 00:29 28.24082 44.61202 34895 ft 549 kts 109°
2026-04-21 00:30 28.22285 44.69602 34890 ft 547 kts 109°
2026-04-21 00:30 28.20487 44.77981 34894 ft 547 kts 109°
2026-04-21 00:31 28.18695 44.86302 34900 ft 547 kts 109°
2026-04-21 00:31 28.16887 44.94678 34898 ft 547 kts 109°
2026-04-21 00:32 28.15074 45.03048 34886 ft 546 kts 110°
2026-04-21 00:32 28.13833 45.07053 34882 ft 532 kts 125°
2026-04-21 00:32 28.12646 45.09450 34903 ft 525 kts 129°
2026-04-21 00:33 28.08942 45.16630 34870 ft 528 kts 129°
2026-04-21 00:33 28.05158 45.23767 34896 ft 527 kts 129°
2026-04-21 00:34 28.01363 45.30847 34899 ft 526 kts 129°
2026-04-21 00:34 27.97559 45.37929 34878 ft 526 kts 129°
2026-04-21 00:35 27.93773 45.44966 34893 ft 523 kts 129°
2026-04-21 00:35 27.89990 45.51985 34893 ft 523 kts 129°
2026-04-21 00:35 27.88278 45.55642 34871 ft 533 kts 117°
2026-04-21 00:36 27.87252 45.59696 34927 ft 540 kts 109°
2026-04-21 00:36 27.85513 45.67985 34897 ft 542 kts 108°
2026-04-21 00:37 27.83806 45.76293 34896 ft 543 kts 108°
2026-04-21 00:37 27.82096 45.84586 34896 ft 540 kts 109°
2026-04-21 00:38 27.80388 45.92842 34907 ft 540 kts 109°
2026-04-21 00:38 27.78674 46.01094 34904 ft 537 kts 109°
2026-04-21 00:39 27.76981 46.09230 34905 ft 536 kts 109°
2026-04-21 00:39 27.75270 46.17422 34912 ft 536 kts 109°
2026-04-21 00:40 27.73565 46.25588 34912 ft 533 kts 109°
2026-04-21 00:40 27.71867 46.33734 34894 ft 533 kts 109°
2026-04-21 00:41 27.70167 46.41856 34911 ft 531 kts 109°
2026-04-21 00:41 27.68468 46.49957 34914 ft 530 kts 109°
2026-04-21 00:42 27.66764 46.58054 34916 ft 530 kts 109°
2026-04-21 00:42 27.65061 46.66119 34914 ft 527 kts 109°
2026-04-21 00:43 27.63353 46.74181 34915 ft 530 kts 108°
2026-04-21 00:43 27.61646 46.82218 34916 ft 530 kts 109°
2026-04-21 00:44 27.59923 46.90302 34920 ft 530 kts 109°
2026-04-21 00:44 27.58196 46.98384 34911 ft 530 kts 108°
2026-04-21 00:45 27.55606 47.10455 34912 ft 530 kts 108°
2026-04-21 00:45 27.53863 47.18551 34919 ft 531 kts 108°
2026-04-21 00:46 27.52119 47.26626 34916 ft 529 kts 108°
2026-04-21 00:46 27.50374 47.34681 34917 ft 529 kts 108°
2026-04-21 00:47 27.48623 47.42739 34899 ft 529 kts 108°
2026-04-21 00:47 27.46871 47.50782 34918 ft 529 kts 108°
2026-04-21 00:48 27.45115 47.58827 34914 ft 529 kts 108°
2026-04-21 00:48 27.42974 47.66697 34912 ft 525 kts 112°
2026-04-21 00:49 27.40759 47.74539 34911 ft 526 kts 112°
2026-04-21 00:49 27.38553 47.82392 34907 ft 527 kts 112°
2026-04-21 00:50 27.36336 47.90269 34905 ft 528 kts 112°
2026-04-21 00:50 27.34115 47.98140 34903 ft 528 kts 112°
2026-04-21 00:51 27.31887 48.06012 34901 ft 530 kts 112°
2026-04-21 00:51 27.29773 48.13964 34888 ft 530 kts 110°
2026-04-21 00:52 27.27672 48.21898 34898 ft 529 kts 110°
2026-04-21 00:52 27.25575 48.29779 34900 ft 530 kts 111°
2026-04-21 00:53 27.23457 48.37721 34895 ft 530 kts 111°
2026-04-21 00:53 27.21335 48.45660 34896 ft 530 kts 111°
2026-04-21 00:54 27.19209 48.53594 34884 ft 530 kts 111°
2026-04-21 00:54 27.17079 48.61524 34882 ft 530 kts 111°
2026-04-21 00:55 27.14944 48.69447 34879 ft 530 kts 111°
2026-04-21 00:55 27.12802 48.77383 34874 ft 531 kts 111°
2026-04-21 00:56 27.10658 48.85308 34849 ft 531 kts 111°
2026-04-21 00:56 27.09821 48.89353 34850 ft 534 kts 98°
2026-04-21 00:56 27.09614 48.93517 34897 ft 536 kts 95°
2026-04-21 00:57 27.09221 49.01883 34865 ft 536 kts 95°
2026-04-21 00:57 27.08837 49.10243 34864 ft 536 kts 95°
2026-04-21 00:58 27.08453 49.18574 34856 ft 534 kts 95°
2026-04-21 00:58 27.08060 49.26906 34855 ft 535 kts 95°
2026-04-21 00:59 27.07651 49.35226 34861 ft 532 kts 95°
2026-04-21 00:59 27.07257 49.43445 34858 ft 531 kts 95°
2026-04-21 01:00 27.06853 49.51722 34853 ft 531 kts 95°
2026-04-21 01:00 27.06445 49.59988 34843 ft 529 kts 95°
2026-04-21 01:01 27.06033 49.68246 34849 ft 529 kts 96°
2026-04-21 01:01 27.05616 49.76491 34854 ft 530 kts 96°
2026-04-21 01:02 27.05193 49.84759 34859 ft 532 kts 96°
2026-04-21 01:02 27.04766 49.93040 34857 ft 531 kts 96°
2026-04-21 01:03 27.04642 50.01327 34877 ft 532 kts 91°
2026-04-21 01:03 27.04669 50.09639 34852 ft 532 kts 91°
2026-04-21 01:04 27.04746 50.17885 34861 ft 532 kts 91°
2026-04-21 01:04 27.04822 50.26172 34855 ft 530 kts 91°
2026-04-21 01:05 27.04864 50.34440 34857 ft 530 kts 95°
2026-04-21 01:05 27.04264 50.38480 34840 ft 521 kts 112°
2026-04-21 01:05 27.02960 50.42248 34860 ft 519 kts 116°
2026-04-21 01:06 27.00231 50.49766 34867 ft 521 kts 117°
2026-04-21 01:06 26.97417 50.57247 34865 ft 521 kts 117°
2026-04-21 01:07 26.94576 50.64721 34859 ft 521 kts 117°
2026-04-21 01:07 26.91716 50.72225 34861 ft 526 kts 117°
2026-04-21 01:08 26.88841 50.79757 34856 ft 525 kts 117°
2026-04-21 01:08 26.85962 50.87285 34836 ft 526 kts 117°
2026-04-21 01:09 26.83070 50.94833 34849 ft 528 kts 116°
2026-04-21 01:09 26.80191 51.02397 34847 ft 528 kts 116°
2026-04-21 01:10 26.77389 51.10008 34842 ft 530 kts 112°
2026-04-21 01:10 26.74937 51.17780 34845 ft 530 kts 112°
2026-04-21 01:11 26.72429 51.25530 34843 ft 531 kts 112°
2026-04-21 01:11 26.69905 51.33290 34841 ft 531 kts 112°
2026-04-21 01:12 26.67388 51.41012 34839 ft 527 kts 112°
2026-04-21 01:12 26.64921 51.48669 34838 ft 527 kts 112°
2026-04-21 01:13 26.62441 51.56384 34815 ft 527 kts 112°
2026-04-21 01:13 26.59958 51.64085 34829 ft 526 kts 112°
2026-04-21 01:14 26.57474 51.71777 34826 ft 526 kts 112°
2026-04-21 01:14 26.54987 51.79466 34826 ft 526 kts 112°
2026-04-21 01:15 26.52491 51.87141 34818 ft 525 kts 112°
2026-04-21 01:15 26.49953 51.94785 34804 ft 525 kts 112°
2026-04-21 01:16 26.47411 52.02443 34816 ft 526 kts 112°
2026-04-21 01:16 26.44866 52.10093 34813 ft 525 kts 112°
2026-04-21 01:17 26.42317 52.17724 34812 ft 525 kts 113°
2026-04-21 01:17 26.39764 52.25349 34810 ft 525 kts 113°
2026-04-21 01:18 26.37209 52.32964 34798 ft 524 kts 112°
2026-04-21 01:18 26.34507 52.40499 34809 ft 523 kts 116°
2026-04-21 01:19 26.31651 52.47964 34805 ft 523 kts 115°
2026-04-21 01:19 26.29287 52.54185 34804 ft 523 kts 115°
2026-04-21 01:20 26.26450 52.61634 34803 ft 522 kts 115°
2026-04-21 01:20 26.23605 52.69084 34791 ft 523 kts 115°
2026-04-21 01:21 26.20753 52.76535 34797 ft 523 kts 115°
2026-04-21 01:21 26.17899 52.83977 34802 ft 522 kts 115°
2026-04-21 01:22 26.15048 52.91400 34790 ft 522 kts 115°
2026-04-21 01:22 26.12190 52.98826 34797 ft 522 kts 115°
2026-04-21 01:23 26.09394 53.06267 34783 ft 520 kts 114°
2026-04-21 01:23 26.06662 53.13716 34791 ft 520 kts 114°
2026-04-21 01:24 26.03918 53.21155 34788 ft 520 kts 114°
2026-04-21 01:24 26.01189 53.28540 34786 ft 519 kts 114°
2026-04-21 01:25 25.98443 53.35957 34785 ft 519 kts 114°
2026-04-21 01:25 25.95693 53.43372 34785 ft 519 kts 114°
2026-04-21 01:26 25.92991 53.50809 34618 ft 518 kts 112°
2026-04-21 01:26 25.91716 53.54530 33855 ft 517 kts 112°
2026-04-21 01:26 25.90429 53.58253 33205 ft 512 kts 112°
2026-04-21 01:27 25.89161 53.61908 32251 ft 505 kts 113°
2026-04-21 01:27 25.87897 53.65543 31056 ft 504 kts 113°
2026-04-21 01:27 25.86635 53.69172 30054 ft 503 kts 113°
2026-04-21 01:27 25.85374 53.72805 29090 ft 505 kts 113°
2026-04-21 01:28 25.84108 53.76459 28142 ft 507 kts 113°
2026-04-21 01:28 25.82844 53.80104 27298 ft 506 kts 113°
2026-04-21 01:28 25.81577 53.83752 26360 ft 508 kts 113°
2026-04-21 01:28 25.80310 53.87395 25653 ft 504 kts 113°
2026-04-21 01:29 25.79052 53.91012 24932 ft 501 kts 113°
2026-04-21 01:29 25.77797 53.94615 24211 ft 499 kts 113°
2026-04-21 01:29 25.76545 53.98205 23488 ft 498 kts 113°
2026-04-21 01:29 25.75369 54.01812 22576 ft 498 kts 110°
2026-04-21 01:30 25.74265 54.05448 21798 ft 495 kts 111°
2026-04-21 01:30 25.73163 54.09036 21190 ft 488 kts 111°
2026-04-21 01:30 25.72070 54.12570 20488 ft 483 kts 111°
2026-04-21 01:30 25.70988 54.16059 19750 ft 471 kts 111°
2026-04-21 01:31 25.69929 54.19472 19062 ft 467 kts 112°
2026-04-21 01:31 25.68874 54.22866 18387 ft 465 kts 111°
2026-04-21 01:31 25.67826 54.26235 17603 ft 461 kts 111°
2026-04-21 01:31 25.66786 54.29572 16580 ft 453 kts 111°
2026-04-21 01:32 25.65782 54.32804 16333 ft 436 kts 111°
2026-04-21 01:32 25.64804 54.35954 15624 ft 437 kts 111°
2026-04-21 01:32 25.63820 54.39132 15029 ft 435 kts 111°
2026-04-21 01:32 25.62840 54.42292 14401 ft 433 kts 111°
2026-04-21 01:33 25.61867 54.45426 14011 ft 425 kts 111°
2026-04-21 01:33 25.60921 54.48472 13906 ft 410 kts 111°
2026-04-21 01:33 25.60007 54.51412 13755 ft 398 kts 111°
2026-04-21 01:33 25.59116 54.54273 13557 ft 388 kts 111°
2026-04-21 01:34 25.58247 54.57063 13346 ft 378 kts 111°
2026-04-21 01:34 25.57387 54.59777 13150 ft 368 kts 111°
2026-04-21 01:34 25.56541 54.62415 12970 ft 359 kts 111°
2026-04-21 01:34 25.55718 54.64988 12815 ft 349 kts 111°
2026-04-21 01:35 25.54918 54.67488 12668 ft 340 kts 111°
2026-04-21 01:35 25.54140 54.69919 12514 ft 331 kts 111°
2026-04-21 01:35 25.53381 54.72287 12371 ft 322 kts 111°
2026-04-21 01:35 25.52643 54.74589 12230 ft 313 kts 111°
2026-04-21 01:36 25.51925 54.76826 12088 ft 304 kts 111°
2026-04-21 01:36 25.51170 54.78980 11943 ft 296 kts 115°
2026-04-21 01:36 25.50344 54.81070 11803 ft 297 kts 115°
2026-04-21 01:36 25.49523 54.83173 11681 ft 298 kts 115°
2026-04-21 01:37 25.48705 54.85283 11541 ft 298 kts 115°
2026-04-21 01:37 25.47891 54.87389 11389 ft 297 kts 114°
2026-04-21 01:37 25.47079 54.89492 11235 ft 297 kts 114°
2026-04-21 01:37 25.46268 54.91593 11078 ft 297 kts 114°
2026-04-21 01:38 25.45457 54.93689 10929 ft 296 kts 114°
2026-04-21 01:38 25.44648 54.95752 10773 ft 296 kts 118°
2026-04-21 01:38 25.43634 54.97725 10600 ft 295 kts 122°
2026-04-21 01:38 25.42596 54.99685 10436 ft 295 kts 122°
2026-04-21 01:39 25.41572 55.01646 10286 ft 294 kts 120°
2026-04-21 01:39 25.40557 55.03607 10139 ft 293 kts 120°
2026-04-21 01:39 25.39551 55.05561 9992 ft 292 kts 120°
2026-04-21 01:39 25.38547 55.07513 9840 ft 292 kts 120°
2026-04-21 01:40 25.37543 55.09466 9683 ft 292 kts 120°
2026-04-21 01:40 25.36542 55.11415 9518 ft 291 kts 120°
2026-04-21 01:40 25.35379 55.13228 9348 ft 289 kts 134°
2026-04-21 01:40 25.34020 55.14859 9175 ft 288 kts 133°
2026-04-21 01:41 25.32676 55.16499 9042 ft 287 kts 133°
2026-04-21 01:41 25.31341 55.18137 8899 ft 286 kts 133°
2026-04-21 01:41 25.30012 55.19770 8747 ft 285 kts 133°
2026-04-21 01:41 25.28694 55.21390 8599 ft 281 kts 133°
2026-04-21 01:42 25.27407 55.22971 8448 ft 273 kts 133°
2026-04-21 01:42 25.26156 55.24508 8301 ft 265 kts 133°
2026-04-21 01:42 25.24938 55.26002 8154 ft 257 kts 133°
2026-04-21 01:42 25.23746 55.27463 8044 ft 256 kts 132°
2026-04-21 01:43 25.22554 55.28923 7895 ft 255 kts 132°
2026-04-21 01:43 25.21365 55.30381 7705 ft 255 kts 131°
2026-04-21 01:43 25.20180 55.31834 7477 ft 255 kts 131°
2026-04-21 01:43 25.18997 55.33285 7232 ft 254 kts 130°
2026-04-21 01:44 25.17972 55.34860 6973 ft 251 kts 120°
2026-04-21 01:44 25.17071 55.36502 6749 ft 249 kts 120°
2026-04-21 01:44 25.16171 55.38125 6513 ft 247 kts 120°
2026-04-21 01:44 25.15271 55.39735 6280 ft 246 kts 121°
2026-04-21 01:45 25.14372 55.41334 6040 ft 244 kts 121°
2026-04-21 01:45 25.13476 55.42921 5784 ft 243 kts 121°
2026-04-21 01:45 25.12576 55.44514 5474 ft 245 kts 121°
2026-04-21 01:45 25.11676 55.46103 5218 ft 243 kts 121°
2026-04-21 01:46 25.10789 55.47680 4972 ft 241 kts 121°
2026-04-21 01:46 25.09916 55.49247 4730 ft 239 kts 121°
2026-04-21 01:46 25.09048 55.50803 4488 ft 238 kts 121°
2026-04-21 01:46 25.08179 55.52359 4244 ft 238 kts 121°
2026-04-21 01:47 25.07371 55.53954 3917 ft 239 kts 107°
2026-04-21 01:47 25.07311 55.55725 3516 ft 236 kts 69°
2026-04-21 01:47 25.08210 55.57162 3161 ft 225 kts 37°
2026-04-21 01:47 25.09558 55.57972 2932 ft 219 kts 15°
2026-04-21 01:48 25.11051 55.58121 2725 ft 215 kts 351°
2026-04-21 01:48 25.12447 55.57552 2590 ft 216 kts 333°
2026-04-21 01:48 25.13714 55.56661 2488 ft 217 kts 319°
2026-04-21 01:48 25.14690 55.55391 2437 ft 215 kts 307°
2026-04-21 01:49 25.15489 55.54054 2434 ft 199 kts 306°
2026-04-21 01:49 25.16199 55.52809 2440 ft 188 kts 304°
2026-04-21 01:49 25.16863 55.51614 2393 ft 179 kts 305°
2026-04-21 01:49 25.17498 55.50467 2187 ft 170 kts 305°
2026-04-21 01:50 25.18106 55.49372 1985 ft 165 kts 305°
2026-04-21 01:50 25.18702 55.48296 1790 ft 164 kts 303°
2026-04-21 01:50 25.19284 55.47196 1650 ft 168 kts 306°
2026-04-21 01:50 25.19898 55.46126 1433 ft 160 kts 304°
2026-04-21 01:51 25.20490 55.45098 1182 ft 156 kts 305°
2026-04-21 01:51 25.21047 55.44089 1013 ft 153 kts 304°
2026-04-21 01:51 25.21596 55.43084 844 ft 152 kts 304°
2026-04-21 01:51 25.22161 55.42095 644 ft 152 kts 303°
2026-04-21 01:52 25.22704 55.41087 427 ft 153 kts 302°
2026-04-21 01:52 25.23806 55.39096 34 ft 143 kts 303°
2026-04-21 01:52 25.24258 55.38281 29 ft 96 kts 301°
2026-04-21 01:53 25.24524 55.37801 25 ft 49 kts 301°
2026-04-21 01:53 25.24609 55.37525 24 ft 25 kts 276°
2026-04-21 01:53 25.24615 55.37381 24 ft 18 kts 272°
2026-04-21 01:53 25.24639 55.37237 25 ft 20 kts 296°
2026-04-21 01:54 25.24715 55.37099 27 ft 22 kts 302°
2026-04-21 01:54 25.24798 55.36951 26 ft 23 kts 302°
2026-04-21 01:54 25.24856 55.36815 26 ft 19 kts 283°
2026-04-21 01:54 25.24894 55.36667 25 ft 21 kts 295°
2026-04-21 01:55 25.24966 55.36535 24 ft 19 kts 302°
2026-04-21 01:55 25.25034 55.36414 24 ft 20 kts 302°
2026-04-21 01:55 25.25110 55.36279 24 ft 21 kts 301°
2026-04-21 01:55 25.25185 55.36145 24 ft 20 kts 302°
2026-04-21 01:56 25.25260 55.36012 25 ft 21 kts 302°
2026-04-21 01:56 25.25333 55.35883 25 ft 20 kts 302°
2026-04-21 01:56 25.25406 55.35752 26 ft 21 kts 302°
2026-04-21 01:56 25.25479 55.35622 25 ft 19 kts 302°
2026-04-21 01:57 25.25548 55.35500 24 ft 19 kts 302°
2026-04-21 01:57 25.25618 55.35376 24 ft 19 kts 302°
2026-04-21 01:57 25.25689 55.35249 24 ft 18 kts 301°
2026-04-21 01:57 25.25755 55.35131 24 ft 17 kts 301°
2026-04-21 01:58 25.25819 55.35055 26 ft 14 kts 354°
2026-04-21 01:58 25.25913 55.35104 24 ft 16 kts 31°
2026-04-21 01:58 25.26014 55.35172 28 ft 18 kts 31°
2026-04-21 01:58 25.26122 55.35244 25 ft 18 kts 31°
2026-04-21 01:59 25.26225 55.35314 26 ft 17 kts 31°
2026-04-21 01:59 25.26332 55.35386 27 ft 18 kts 32°
2026-04-21 01:59 25.26436 55.35455 26 ft 16 kts 31°
2026-04-21 01:59 25.26507 55.35500 24 ft 9 kts 29°
2026-04-21 02:00 25.26552 55.35529 26 ft 7 kts 31°
2026-04-21 02:00 25.26576 55.35545 24 ft 4 kts 31°
2026-04-21 02:00 25.26588 55.35553 24 ft 1 kts 31°
2026-04-21 02:00 25.26591 55.35555 24 ft 0 kts 31°